Location: Duac?
(36.9744°N, 30.6500°E)
Time: 12:57:59
(UTC+00:00)

USA 245 - Pass Details

Date: 05 August 2024
Orbit: 263 x 964 km, 97.9° (Epoch: 10 September)

Event Time Altitude Azimuth Distance (km) Brightness Sun altitude
Exits shadow 19:10:51 48° 162° (SSE) 1,101 4.4 -22.7°
Maximum altitude 19:12:31 86° 78° (ENE) 825 4.0 -22.9°
Drops below altitude 10° 19:17:28 10° 349° (N) 2,201 7.1 -23.6°
Sets 19:19:31 0° 349° (N) 3,017 8.0 -23.9°
